Temp
-9 -9 -9 -9 -9 -10 -9 -9 -8 -8 -9 -8 -8 -8 -8 -8 -7 -7 -7 -7 -7 -7 -8 -8 -7 -7 -7 -7 -7 -7 -7 -7 -7 -8 -7 -7 -7 -7 -7 -7 -7 -7 -7
-9 -9 -9 -9 -9 -9 -10 -10 -9 -9 -9 -9 -9 -9 -8 -8 -8 -7 -7 -7 -7 -7 -7 -6 -7 -7 -7 -7 -7 -7 -7 -7 -7 -7 -7 -7 -6 -7 -7 -7 -7 -7 -7
-9 -10 -9 -9 -10 -10 -10 -10 -9 -9 -9 -10 -10 -9 -9 -9 -8 -8 -8 -7 -7 -7 -7 -7 -7 -6 -7 -7 -7 -8 -7 -7 -7 -7 -6 -7 -7 -7 -7 -7 -8 -7 -7
-9 -9 -9 -9 -8 -9 -10 -10 -10 -10 -10 -10 -10 -10 -10 -10 -10 -9 -8 -8 -7 -7 -7 -7 -7 -7 -7 -7 -7 -7 -7 -7 -7 -7 -7 -7 -8 -7 -8 -8 -8 -7 -7
-9 -9 -10 -10 -9 -9 -10 -10 -10 -11 -11 -10 -10 -10 -10 -10 -10 -10 -10 -9 -9 -8 -8 -7 -7 -7 -7 -8 -7 -7 -7 -7 -7 -7 -8 -8 -8 -8 -9 -9 -8 -8 -8
-9 -9 -9 -9 -9 -10 -11 -11 -10 -10 -11 -11 -11 -10 -11 -10 -10 -10 -10 -10 -10 -9 -9 -8 -8 -7 -7 -7 -7 -7 -7 -7 -7 -8 -8 -8 -8 -8 -9 -9 -9 -9 -8
-8 -9 -9 -10 -9 -10 -10 -11 -10 -9 -10 -11 -10 -10 -10 -10 -10 -9 -9 -9 -9 -10 -10 -9 -9 -8 -8 -8 -7 -7 -7 -7 -7 -8 -8 -8 -9 -9 -8 -8 -8 -9 -9
-9 -9 -9 -9 -9 -9 -10 -10 -10 -10 -10 -10 -10 -10 -10 -9 -9 -9 -8 -8 -9 -8 -8 -9 -10 -9 -8 -8 -8 -8 -7 -7 -7 -8 -8 -8 -9 -9 -9 -9 -9 -9 -9
-9 -10 -9 -9 -9 -9 -9 -9 -9 -10 -10 -10 -11 -10 -9 -9 -9 -9 -8 -8 -9 -9 -8 -9 -9 -10 -9 -8 -8 -8 -8 -8 -8 -8 -8 -8 -8 -9 -9 -9 -10 -10 -10
-10 -10 -9 -10 -9 -9 -10 -10 -9 -10 -9 -9 -10 -9 -9 -9 -9 -9 -9 -9 -8 -9 -9 -9 -9 -9 -10 -9 -9 -8 -8 -8 -8 -8 -8 -8 -9 -9 -10 -10 -10 -10 -10
-10 -10 -10 -9 -9 -9 -10 -10 -10 -10 -9 -10 -9 -9 -9 -9 -9 -9 -9 -9 -9 -9 -9 -10 -10 -10 -10 -10 -9 -9 -9 -9 -8 -8 -8 -9 -10 -9 -10 -10 -10 -10 -10
-11 -11 -11 -10 -10 -10 -9 -9 -9 -9 -9 -9 -9 -9 -8 -9 -9 -9 -9 -8 -9 -9 -9 -10 -10 -10 -10 -10 -9 -9 -9 -10 -9 -9 -9 -9 -10 -10 -10 -10 -10 -10 -10
-11 -11 -11 -10 -10 -9 -10 -10 -10 -10 -9 -8 -8 -8 -8 -8 -8 -9 -9 -8 -9 -9 -9 -10 -10 -10 -10 -10 -10 -10 -10 -11 -10 -10 -9 -10 -11 -11 -10 -10 -10 -10 -10
-11 -11 -11 -10 -10 -10 -9 -9 -8 -9 -9 -8 -8 -8 -8 -8 -9 -9 -9 -9 -9 -10 -10 -10 -10 -10 -10 -10 -10 -9 -10 -11 -11 -11 -11 -11 -11 -11 -11 -11 -11 -11 -11
-11 -10 -10 -10 -9 -9 -9 -9 -9 -9 -8 -8 -8 -8 -8 -8 -9 -8 -8 -9 -9 -9 -10 -10 -10 -10 -10 -10 -10 -10 -11 -12 -11 -11 -11 -11 -11 -11 -11 -11 -11 -11 -11
-10 -10 -9 -9 -9 -9 -9 -9 -9 -8 -8 -8 -8 -8 -8 -8 -9 -9 -9 -9 -8 -9 -9 -10 -10 -10 -10 -10 -10 -10 -10 -11 -11 -11 -11 -11 -12 -12 -12 -12 -12 -12 -12
-10 -10 -10 -10 -10 -10 -9 -9 -9 -9 -8 -8 -8 -8 -9 -9 -9 -9 -9 -9 -10 -9 -10 -10 -10 -10 -9 -10 -11 -11 -11 -11 -11 -11 -12 -12 -12 -12 -12 -12 -12 -12 -12
-10 -10 -10 -10 -10 -10 -10 -10 -9 -9 -9 -9 -9 -8 -9 -9 -9 -9 -9 -9 -9 -10 -10 -10 -10 -10 -10 -11 -11 -11 -11 -11 -12 -12 -12 -12 -12 -12 -12 -12 -12 -13 -13
-10 -10 -10 -10 -10 -10 -10 -10 -10 -9 -10 -9 -9 -9 -9 -10 -9 -10 -10 -10 -9 -9 -10 -10 -10 -11 -11 -11 -11 -11 -12 -12 -13 -13 -13 -12 -12 -13 -13 -12 -12 -13 -13
-12 -11 -11 -11 -11 -11 -11 -10 -10 -10 -10 -10 -10 -10 -10 -10 -10 -10 -11 -10 -10 -10 -10 -10 -10 -11 -11 -11 -11 -12 -12 -12 -13 -13 -13 -13 -13 -13 -13 -14 -14 -14 -14
-14 -13 -13 -13 -13 -12 -11 -11 -11 -10 -11 -11 -10 -10 -10 -11 -10 -10 -10 -10 -11 -10 -10 -10 -10 -11 -12 -12 -12 -12 -13 -13 -13 -13 -13 -13 -13 -14 -14 -14 -14 -14 -14
-14 -14 -14 -14 -14 -14 -13 -13 -12 -12 -12 -12 -12 -11 -11 -12 -11 -11 -11 -11 -11 -11 -11 -11 -11 -11 -12 -12 -13 -13 -13 -13 -14 -14 -13 -13 -14 -14 -14 -14 -14 -15 -15
-15 -15 -15 -14 -14 -14 -14 -14 -13 -13 -12 -13 -13 -12 -12 -12 -12 -12 -12 -12 -12 -11 -12 -13 -13 -13 -13 -13 -13 -14 -14 -14 -14 -14 -14 -14 -14 -15 -15 -15 -15 -15 -15
-15 -15 -15 -15 -15 -14 -15 -14 -14 -14 -13 -14 -13 -13 -13 -13 -13 -13 -12 -13 -13 -13 -13 -14 -14 -14 -14 -14 -14 -14 -15 -15 -14 -14 -14 -15 -15 -15 -15 -15 -15 -15 -15
-15 -15 -15 -14 -14 -15 -15 -15 -15 -15 -14 -14 -14 -14 -14 -14 -14 -14 -13 -14 -14 -14 -14 -14 -14 -14 -14 -15 -16 -16 -15 -15 -15 -15 -15 -15 -15 -15 -15 -15 -15 -15 -15
-15 -15 -15 -15 -15 -15 -15 -15 -15 -15 -15 -15 -14 -14 -15 -15 -15 -15 -15 -14 -14 -14 -15 -15 -15 -15 -15 -15 -15 -15 -16 -16 -16 -16 -16 -16 -15 -15 -15 -15 -16 -16 -17
Height
5844 5846 5845 5844 5845 5846 5847 5845 5847 5848 5848 5847 5846 5847 5846 5846 5847 5845 5843 5842 5842 5840 5841 5841 5840 5839 5841 5841 5841 5841 5843 5844 5844 5845 5845 5845 5846 5846 5845 5847 5847 5847 5848
5836 5838 5838 5838 5839 5842 5843 5843 5843 5846 5847 5846 5845 5846 5847 5846 5845 5845 5843 5841 5840 5839 5838 5838 5838 5837 5838 5837 5836 5836 5836 5837 5837 5837 5837 5838 5839 5840 5840 5840 5840 5838 5840
5827 5830 5831 5830 5830 5834 5836 5839 5839 5841 5843 5843 5842 5840 5840 5840 5839 5838 5838 5838 5836 5835 5834 5833 5833 5833 5833 5833 5833 5832 5831 5831 5831 5831 5831 5832 5832 5832 5832 5833 5833 5832 5833
5818 5821 5821 5823 5826 5829 5832 5833 5833 5834 5835 5837 5836 5835 5834 5834 5833 5831 5831 5830 5831 5832 5830 5829 5827 5827 5827 5826 5826 5826 5827 5825 5826 5826 5825 5825 5824 5825 5826 5826 5827 5827 5827
5810 5810 5816 5818 5820 5824 5828 5826 5826 5828 5825 5827 5829 5828 5827 5825 5825 5825 5824 5823 5823 5823 5823 5822 5821 5820 5820 5821 5819 5819 5820 5819 5819 5819 5819 5819 5818 5818 5819 5819 5818 5819 5818
5796 5800 5805 5809 5812 5817 5819 5820 5820 5820 5821 5820 5820 5821 5820 5816 5815 5817 5817 5816 5815 5814 5814 5815 5814 5814 5812 5813 5814 5812 5813 5813 5812 5812 5812 5812 5813 5813 5813 5812 5813 5812 5812
5790 5792 5794 5798 5801 5801 5803 5807 5815 5813 5813 5813 5814 5815 5814 5810 5807 5807 5809 5806 5807 5807 5807 5807 5807 5806 5806 5806 5805 5804 5805 5804 5805 5805 5804 5804 5805 5806 5806 5806 5807 5807 5807
5786 5787 5789 5791 5790 5793 5791 5798 5802 5806 5805 5803 5806 5808 5808 5804 5799 5799 5799 5797 5797 5800 5801 5801 5800 5801 5800 5799 5797 5797 5798 5797 5798 5798 5797 5797 5797 5797 5798 5799 5800 5801 5801
5780 5781 5781 5780 5783 5788 5789 5791 5794 5797 5799 5794 5796 5795 5795 5793 5792 5791 5791 5791 5791 5790 5792 5793 5793 5793 5793 5794 5791 5791 5790 5790 5790 5791 5790 5789 5789 5789 5790 5791 5792 5794 5795
5774 5774 5771 5772 5775 5776 5783 5786 5787 5788 5789 5787 5787 5787 5785 5783 5782 5783 5782 5781 5782 5782 5780 5780 5782 5785 5784 5785 5784 5783 5785 5782 5782 5782 5783 5782 5782 5782 5783 5784 5784 5786 5786
5765 5767 5766 5766 5769 5774 5778 5778 5780 5782 5781 5778 5777 5777 5777 5776 5775 5772 5772 5773 5771 5769 5770 5768 5770 5774 5777 5778 5777 5777 5775 5775 5776 5775 5775 5775 5775 5775 5775 5777 5776 5777 5779
5757 5759 5762 5763 5766 5769 5771 5772 5771 5770 5770 5769 5768 5767 5767 5765 5764 5762 5760 5762 5760 5760 5758 5758 5759 5764 5767 5769 5768 5769 5768 5766 5766 5766 5767 5768 5769 5768 5767 5767 5769 5770 5770
5752 5752 5754 5757 5759 5759 5760 5760 5758 5757 5757 5757 5758 5758 5758 5756 5755 5752 5750 5747 5747 5745 5744 5747 5749 5754 5757 5759 5759 5759 5759 5758 5758 5759 5758 5759 5760 5761 5761 5761 5761 5763 5763
5743 5744 5746 5748 5750 5750 5750 5749 5748 5747 5747 5747 5746 5747 5747 5747 5746 5741 5738 5737 5731 5728 5730 5735 5737 5742 5747 5750 5749 5750 5751 5752 5752 5752 5752 5752 5752 5753 5755 5755 5754 5754 5755
5735 5736 5736 5737 5737 5736 5738 5738 5736 5735 5736 5736 5734 5735 5735 5734 5733 5731 5726 5723 5718 5715 5717 5722 5729 5733 5737 5739 5740 5741 5742 5743 5743 5745 5745 5746 5746 5746 5747 5747 5747 5747 5747
5726 5727 5726 5725 5725 5724 5724 5724 5724 5724 5726 5725 5724 5723 5723 5723 5722 5720 5717 5714 5709 5709 5712 5717 5721 5724 5727 5729 5731 5732 5733 5734 5736 5737 5737 5738 5738 5739 5740 5739 5739 5739 5739
5714 5715 5715 5713 5714 5715 5714 5714 5714 5714 5715 5714 5713 5712 5712 5713 5711 5709 5710 5707 5704 5704 5705 5708 5712 5713 5716 5718 5722 5723 5724 5725 5727 5728 5728 5728 5729 5729 5731 5731 5731 5732 5731
5704 5705 5704 5704 5705 5704 5704 5704 5704 5705 5705 5703 5701 5700 5701 5702 5700 5698 5699 5700 5698 5695 5695 5698 5701 5703 5705 5708 5712 5713 5714 5716 5716 5717 5718 5719 5719 5721 5722 5722 5722 5720 5720
5694 5693 5693 5692 5693 5692 5693 5693 5691 5690 5690 5691 5690 5690 5689 5689 5690 5690 5689 5688 5690 5691 5690 5690 5692 5693 5695 5698 5701 5704 5705 5706 5707 5707 5708 5709 5709 5710 5710 5710 5710 5709 5709
5681 5681 5680 5679 5679 5680 5680 5680 5679 5680 5680 5680 5680 5679 5680 5682 5682 5682 5684 5684 5682 5679 5681 5679 5682 5684 5686 5688 5689 5692 5695 5697 5699 5700 5700 5700 5700 5700 5700 5699 5699 5700 5700
5671 5671 5670 5671 5669 5669 5670 5670 5669 5669 5669 5671 5670 5668 5669 5670 5670 5674 5676 5676 5674 5671 5670 5669 5672 5674 5675 5678 5681 5683 5685 5687 5689 5691 5692 5692 5691 5691 5692 5691 5690 5690 5689
5665 5664 5664 5663 5662 5661 5659 5658 5658 5657 5656 5657 5658 5659 5659 5661 5662 5665 5665 5667 5660 5664 5665 5663 5664 5666 5667 5669 5672 5674 5675 5678 5680 5682 5683 5682 5682 5682 5681 5681 5679 5678 5677
5657 5656 5654 5654 5653 5652 5652 5652 5650 5650 5652 5653 5654 5654 5653 5654 5655 5657 5660 5660 5658 5658 5658 5659 5658 5659 5660 5662 5665 5667 5668 5671 5672 5672 5673 5673 5672 5672 5671 5669 5668 5667 5666
5650 5649 5649 5647 5647 5646 5647 5647 5646 5645 5645 5646 5647 5647 5647 5648 5650 5651 5652 5652 5652 5652 5652 5652 5653 5654 5655 5656 5658 5659 5661 5662 5662 5662 5662 5662 5661 5660 5659 5658 5656 5655 5652
5642 5641 5640 5640 5641 5640 5639 5638 5638 5638 5639 5639 5640 5642 5641 5641 5642 5644 5645 5647 5646 5646 5646 5646 5647 5648 5648 5649 5651 5652 5653 5653 5652 5652 5652 5651 5651 5650 5648 5646 5644 5642 5640
5637 5636 5634 5632 5632 5631 5631 5631 5631 5630 5632 5633 5634 5635 5635 5635 5636 5637 5638 5638 5638 5638 5639 5640 5640 5641 5642 5643 5644 5645 5645 5646 5645 5645 5644 5643 5642 5640 5637 5635 5632 5630 5628
Wind_Speed
25 22 21 21 21 17 11 6 8 10 9 8 7 8 8 9 9 9 10 11 11 11 12 14 16 19 19 19 23 25 30 34 35 36 37 28 28 26 27 26 28 28 26
28 32 24 24 25 22 15 9 8 11 10 9 8 10 14 15 16 17 16 14 15 14 15 15 15 17 18 21 22 23 24 29 32 36 31 34 31 26 30 29 29 25 26
35 37 30 29 28 25 19 13 8 10 13 10 8 8 10 12 10 13 16 17 16 14 15 15 16 17 17 19 20 23 24 23 25 29 27 26 26 24 24 25 23 28 29
45 39 36 30 30 28 22 12 9 11 14 16 18 18 15 17 17 15 15 14 16 21 18 16 16 18 19 19 19 18 20 22 24 26 28 28 28 28 30 24 22 25 26
36 29 33 30 28 29 27 20 15 18 18 16 22 25 22 21 26 24 21 20 19 20 21 20 20 18 20 23 21 20 21 22 25 27 29 29 27 26 26 27 26 29 31
39 17 28 32 30 33 38 28 22 21 20 16 25 18 23 22 21 26 25 27 25 22 20 23 24 21 21 23 23 23 23 24 23 27 26 28 28 28 28 26 26 26 24
24 24 27 37 35 38 35 31 27 24 19 20 20 22 26 26 26 27 27 32 31 23 19 20 24 26 23 22 22 23 26 23 24 21 22 22 24 27 27 27 27 20 17
23 22 20 33 40 23 34 36 31 22 21 19 22 23 25 28 27 25 31 25 26 24 25 23 25 27 27 23 22 21 23 24 25 24 23 23 23 24 25 27 24 22 23
30 26 25 21 27 23 26 25 12 17 23 20 24 27 27 25 23 23 25 26 26 35 34 38 30 28 27 27 25 19 21 24 27 28 28 25 25 25 25 27 26 23 24
34 26 14 12 17 7 8 14 19 21 23 22 25 27 27 28 29 28 26 26 27 30 32 36 38 32 28 28 27 24 25 23 25 28 29 25 24 25 24 25 26 26 28
24 17 12 9 8 13 18 20 22 24 24 26 30 31 29 28 30 32 32 30 34 37 35 34 35 32 28 28 27 25 24 25 24 26 28 25 22 21 24 26 26 28 29
19 16 16 16 22 23 21 21 23 27 27 30 32 31 31 32 32 33 33 31 33 36 36 32 34 31 30 32 28 29 30 28 27 24 25 25 26 26 24 25 29 30 31
26 21 22 26 27 25 25 27 29 30 29 29 29 29 33 34 33 33 36 37 37 47 49 38 37 35 35 33 32 31 33 29 27 27 26 27 28 26 25 25 25 28 30
32 32 32 31 32 32 33 32 28 29 29 29 30 30 32 37 34 37 37 37 44 45 45 46 45 37 36 33 34 34 35 34 30 29 27 23 26 28 28 28 27 27 29
37 36 34 36 36 36 35 32 27 29 29 30 33 34 35 36 33 34 36 35 32 24 39 51 45 37 37 36 34 32 34 34 29 28 28 29 29 29 29 29 30 31 31
35 36 34 34 32 30 28 28 29 31 31 32 34 35 38 37 33 33 33 31 27 25 28 43 42 37 39 37 34 30 30 31 31 31 29 30 31 31 31 32 33 33 34
29 29 29 29 31 33 33 34 35 35 35 38 37 37 38 37 33 31 30 29 25 36 35 41 47 42 46 43 35 29 29 30 33 36 36 35 34 32 34 34 35 36 37
30 31 32 33 36 37 38 37 35 34 37 40 41 40 39 38 36 31 30 32 23 30 40 40 48 45 43 41 35 32 32 34 35 36 37 37 38 39 38 38 39 38 39
35 36 37 35 35 34 35 34 32 31 33 39 42 42 41 38 37 34 29 26 28 27 24 28 40 37 40 37 30 31 33 35 35 34 35 34 34 35 37 38 39 38 37
33 36 35 35 37 36 33 33 33 34 37 34 35 36 38 35 36 34 28 22 24 35 39 37 36 41 34 31 30 28 27 27 27 24 24 25 27 30 30 30 30 31 32
27 27 30 33 34 34 35 35 36 35 32 30 29 29 27 27 31 34 30 34 40 45 45 40 38 32 30 30 28 27 28 25 23 24 24 25 25 26 26 26 27 30 32
26 27 29 31 32 33 33 31 31 27 28 26 27 24 22 28 33 30 22 30 29 34 37 38 38 33 23 24 25 24 20 19 21 25 30 26 23 24 27 30 31 32 33
28 28 29 30 30 29 29 28 25 26 25 24 25 22 20 23 24 25 33 32 37 27 22 19 20 17 18 20 19 19 19 21 24 26 24 25 27 28 30 31 32 34 36
28 29 28 27 25 27 27 26 21 20 24 19 19 16 21 20 18 17 18 17 19 17 17 18 20 22 23 20 19 18 18 21 23 26 28 30 30 30 32 33 36 38 40
30 30 30 28 28 25 24 24 24 19 19 19 20 22 12 11 9 10 21 14 24 23 26 25 27 23 20 20 19 21 23 24 23 25 28 29 31 34 35 37 39 39 38
21 23 24 23 22 20 18 19 19 20 19 18 17 24 27 24 22 25 25 26 24 22 21 21 24 21 19 19 20 21 22 24 25 28 30 32 33 35 36 37 37 37 38
Wind_Direction
248 255 254 252 260 266 257 258 286 289 288 300 310 313 313 309 307 305 303 302 297 299 287 280 278 276 274 267 258 262 254 257 261 260 270 261 265 271 269 257 264 267 263
245 248 246 247 257 266 260 256 277 290 292 299 316 327 324 321 320 317 308 305 310 315 311 309 302 292 284 276 267 260 262 261 259 256 272 263 269 270 267 267 255 257 257
243 247 238 241 244 253 251 261 290 298 298 292 292 297 302 304 307 304 304 304 298 291 287 293 292 289 291 287 282 278 271 270 263 258 261 263 273 278 264 259 256 251 258
260 254 232 240 250 250 250 258 265 265 275 284 291 291 287 288 288 282 281 282 290 290 287 279 279 280 281 276 275 272 271 269 266 265 265 264 264 267 271 264 257 265 266
256 249 229 232 241 253 251 239 232 251 252 272 287 281 283 288 276 278 278 276 277 279 279 274 272 271 271 278 278 273 268 269 266 262 264 267 269 267 266 265 263 260 261
240 272 252 248 242 238 240 238 235 239 255 265 265 282 286 303 271 272 278 284 265 266 275 280 276 272 267 264 270 274 277 274 273 261 262 263 264 265 264 263 265 263 269
250 263 271 245 243 266 257 212 231 240 247 266 277 276 283 285 276 279 281 301 257 260 271 275 280 275 272 267 261 268 273 281 276 273 266 264 265 270 269 270 273 266 253
273 285 276 263 246 294 253 218 215 232 250 257 272 277 273 278 281 283 279 294 243 265 283 280 278 280 274 269 270 271 273 271 273 267 265 265 268 265 267 269 266 262 244
277 275 260 282 250 264 227 219 228 239 260 269 280 288 288 288 286 280 274 275 260 261 272 280 275 273 274 272 271 269 271 271 266 264 266 268 267 263 264 262 258 254 252
272 250 256 242 219 211 252 255 259 263 272 276 282 286 287 291 294 282 273 261 259 259 267 274 264 259 262 264 267 266 268 272 273 266 261 260 263 262 265 259 255 251 247
232 223 208 213 234 233 234 242 256 264 270 279 279 280 282 284 284 285 280 271 263 257 261 269 250 244 257 258 261 262 266 266 269 267 258 254 254 261 260 258 247 248 252
223 221 232 231 230 232 240 248 254 264 265 268 272 274 278 281 284 284 278 271 265 262 266 258 237 237 247 256 258 263 264 263 263 261 257 256 257 255 256 254 254 251 250
245 239 247 249 255 261 265 270 275 274 272 269 266 268 273 278 283 277 273 273 271 265 256 251 237 235 244 255 261 262 264 261 261 260 257 253 250 251 253 253 255 255 255
244 245 250 253 255 260 262 265 266 267 267 265 268 272 276 281 282 274 277 273 277 254 251 235 230 231 243 253 258 263 264 260 259 259 256 250 250 249 252 258 260 261 263
255 259 262 267 271 273 273 271 264 267 269 271 274 274 273 276 280 280 283 287 269 244 228 228 230 232 238 248 256 262 267 257 255 262 263 263 260 257 256 260 263 265 265
257 261 269 273 272 271 271 271 270 272 274 274 273 274 274 275 279 280 284 286 268 245 243 230 230 235 240 245 251 260 267 258 255 260 266 267 267 268 266 263 264 265 267
264 266 265 269 271 270 270 269 271 273 271 267 266 268 269 273 274 276 280 272 270 254 247 234 235 236 245 241 243 254 261 260 257 261 262 266 270 272 270 269 271 273 274
272 269 268 267 267 269 268 268 266 264 261 263 262 260 259 264 263 270 273 263 271 267 239 238 239 249 242 237 237 251 255 257 257 260 263 265 266 267 267 268 268 269 271
267 269 269 269 269 267 268 266 265 266 263 262 263 263 261 264 263 264 261 267 251 255 253 250 243 239 235 229 242 256 259 257 256 257 259 264 267 267 270 273 273 272 275
266 266 268 267 268 270 266 263 262 260 262 266 270 265 263 265 264 263 250 239 259 244 253 247 235 228 235 243 244 238 241 248 254 253 265 272 274 275 277 280 282 283 284
269 266 263 261 262 263 261 262 261 259 264 265 271 269 258 255 257 254 260 262 240 238 245 237 238 241 243 246 237 238 243 248 249 264 272 279 280 281 282 280 281 282 282
265 267 264 264 270 272 270 275 272 269 275 276 273 266 252 246 250 253 258 238 247 245 247 243 243 238 235 235 237 247 252 259 267 272 275 282 279 276 276 277 277 277 278
276 274 271 273 280 280 278 278 275 266 270 274 266 259 253 252 253 251 252 257 259 265 255 246 235 236 241 250 256 261 264 269 277 284 282 280 278 276 276 278 279 283 287
280 276 285 286 286 286 279 276 275 275 271 267 269 264 257 255 246 245 238 237 260 243 243 246 248 249 248 252 265 282 276 269 271 275 277 278 279 279 281 283 286 288 290
289 289 288 286 286 289 287 283 283 289 283 272 260 252 227 233 224 248 254 220 216 230 221 232 243 258 287 300 291 278 273 275 277 278 278 280 281 284 286 287 288 287 285
284 282 287 291 286 282 280 281 281 282 284 280 267 262 276 284 282 282 276 263 257 267 279 282 295 297 290 287 283 282 280 281 282 283 285 285 286 288 289 289 287 285 286